Honolulu, HI

8:18 AM HST on June 23, 2017 (GMT -1000)
Honolulu International

Weather History for PHNL - October, 2012

Change the Weather History Date:

Friday, October 26, 2012

  Actual Average Record
Temperature  
Mean Temperature 80 °F 79 °F  
Max Temperature 86 °F 86 °F 90 °F (1984)
Min Temperature 73 °F 73 °F 64 °F (1993)
Degree Days  
Heating Degree Days 0 0  
Month to date heating degree days 0 0  
Since 1 July heating degree days 0 0  
Cooling Degree Days 15 14  
Month to date cooling degree days 384 397  
Year to date cooling degree days 3794 3876  
Growing Degree Days 28 (Base 50)    
Moisture  
Dew Point 72 °F    
Average Humidity 78    
Maximum Humidity 94    
Minimum Humidity 61    
Precipitation  
Precipitation T in 0.07 in 0.43 in (1982)
Month to date precipitation 0.02 1.46  
Year to date precipitation 8.30 11.06  
Snow  
Snow 0.00 in - - ()
Month to date snowfall 0.0  
Since 1 July snowfall 0.0  
Since 1 September snowfall 0.0  
Snow Depth 0.00 in    
Sea Level Pressure  
Sea Level Pressure 30.02 in    
Wind  
Wind Speed 4 mph (NNE)    
Max Wind Speed 14 mph    
Max Gust Speed 18 mph    
Visibility 10 miles    
Events Rain    
T = Trace of Precipitation, MM = Missing Value Source: NWS Daily Summary

Daily Weather History Graph

Daily Weather History Graph

Search for Another Location

Airport or City:

Trip Planner

Search our weather history database for the weather conditions in past years. The results will help you decide how hot, cold, wet, or windy it might be!

Date:

Astronomy

Oct. 26, 2012 Rise Set
Actual Time 6:32 AM HST 5:58 PM HST
Civil Twilight 6:09 AM HST 6:21 PM HST
Nautical Twilight 5:43 AM HST 6:47 PM HST
Astronomical Twilight 5:17 AM HST 7:13 PM HST
Moon 4:06 PM HST (10/26) 3:56 AM HST (10/26)
Length of Visible Light 12h 11m
Length of Day
11h 26m
Waxing Gibbous, 92% of the Moon is Illuminated
Oct 26
Waxing Gibbous
Oct 29
Full
Nov 6
Last Quarter
Nov 13
New
Nov 20
First Quarter

Hourly Weather History & Observations

Time (HST) Temp. Heat Index Dew Point Humidity Pressure Visibility Wind Dir Wind Speed Gust Speed Precip Events Conditions
12:53 AM 77.0 °F - 72.0 °F 84% 29.99 in 10.0 mi NNW 3.5 mph - 0.00 in Rain Light Rain
1:53 AM 75.9 °F - 73.0 °F 91% 29.97 in 10.0 mi NNE 4.6 mph - 0.00 in   Mostly Cloudy
2:53 AM 75.9 °F - 73.0 °F 91% 29.96 in 10.0 mi NW 4.6 mph - N/A   Scattered Clouds
3:53 AM 75.0 °F - 72.0 °F 90% 29.96 in 10.0 mi Calm Calm - N/A   Partly Cloudy
4:53 AM 73.9 °F - 72.0 °F 93% 29.97 in 10.0 mi Calm Calm - N/A   Partly Cloudy
5:53 AM 73.9 °F - 72.0 °F 93% 30.00 in 10.0 mi Calm Calm - N/A   Partly Cloudy
6:53 AM 73.9 °F - 71.1 °F 91% 30.02 in 10.0 mi NNW 3.5 mph - N/A   Scattered Clouds
7:53 AM 77.0 °F - 71.1 °F 82% 30.04 in 10.0 mi North 3.5 mph - N/A   Scattered Clouds
8:53 AM 81.0 °F 84.4 °F 70.0 °F 69% 30.05 in 10.0 mi Calm Calm - N/A   Scattered Clouds
9:53 AM 84.0 °F 87.8 °F 69.1 °F 61% 30.06 in 10.0 mi Calm Calm - N/A   Scattered Clouds
10:53 AM 84.0 °F 88.4 °F 70.0 °F 63% 30.04 in 10.0 mi South 8.1 mph - N/A   Scattered Clouds
11:53 AM 82.0 °F 86.7 °F 72.0 °F 71% 30.03 in 10.0 mi South 10.4 mph - N/A   Scattered Clouds
12:53 PM 82.9 °F 87.5 °F 71.1 °F 67% 30.01 in 10.0 mi SSW 10.4 mph - N/A   Scattered Clouds
1:53 PM 82.0 °F 86.7 °F 72.0 °F 71% 30.00 in 10.0 mi SSW 9.2 mph - N/A   Mostly Cloudy
2:53 PM 81.0 °F 85.2 °F 72.0 °F 74% 29.99 in 7.0 mi SW 6.9 mph - N/A   Scattered Clouds
3:53 PM 81.0 °F 85.2 °F 72.0 °F 74% 29.99 in 10.0 mi South 6.9 mph - N/A   Mostly Cloudy
4:53 PM 79.0 °F - 71.1 °F 77% 30.00 in 10.0 mi ESE 5.8 mph - N/A   Mostly Cloudy
5:53 PM 78.1 °F - 73.0 °F 84% 30.01 in 10.0 mi Calm Calm - 0.07 in   Scattered Clouds
6:53 PM 79.0 °F - 73.0 °F 82% 30.02 in 10.0 mi NNE 3.5 mph - N/A   Scattered Clouds
7:53 PM 77.0 °F - 73.0 °F 88% 30.05 in 10.0 mi North 3.5 mph - N/A   Partly Cloudy
8:53 PM 77.0 °F - 71.1 °F 82% 30.07 in 10.0 mi North 3.5 mph - N/A   Partly Cloudy
9:53 PM 75.9 °F - 71.1 °F 85% 30.08 in 10.0 mi NE 3.5 mph - N/A   Scattered Clouds
10:53 PM 75.0 °F - 69.1 °F 82% 30.07 in 10.0 mi NE 3.5 mph - N/A   Scattered Clouds
11:53 PM 75.0 °F - 68.0 °F 79% 30.07 in 10.0 mi NE 5.8 mph - N/A   Partly Cloudy